Probability
15 15 13 11 10 10 9 9 10 10 10 9 7 3 1 2 4 5 5 6 7 7 4 1 1 2 2 2 1 0 0 0 0 1 1 1 0 0 0 0 0 0 0
15 15 14 11 10 10 10 10 10 11 10 8 6 4 3 3 4 5 4 4 5 5 3 1 0 1 1 1 0 0 0 0 0 1 1 0 0 0 0 0 0 0 0
16 16 16 14 12 13 14 13 12 12 11 9 7 7 6 5 4 4 4 3 2 2 2 1 0 0 0 0 0 0 0 0 1 2 1 1 0 0 0 0 0 0 0
17 19 20 19 17 17 17 15 14 14 12 11 9 8 8 6 4 4 3 3 2 2 2 2 2 1 0 0 0 0 1 1 2 3 3 2 1 0 0 0 0 0 0
18 20 23 22 19 18 17 16 16 15 13 10 8 7 6 6 5 4 3 3 5 5 4 3 3 2 1 1 1 1 2 3 3 3 3 3 2 1 0 0 0 0 0
17 19 21 21 20 19 19 18 17 16 13 9 6 5 5 6 6 5 4 4 7 8 6 4 3 2 1 2 2 3 3 3 3 3 3 3 2 1 0 0 0 0 0
17 17 17 19 20 19 20 20 18 17 13 8 6 5 6 7 8 8 7 6 7 9 8 7 5 3 2 2 2 3 3 3 3 2 3 2 1 0 0 0 0 0 0
16 15 15 17 18 17 17 18 18 15 11 8 7 6 7 9 11 10 9 8 8 9 8 7 6 6 5 3 1 2 2 2 2 3 3 2 1 1 0 0 0 0 1
16 15 15 15 16 16 14 14 14 12 9 9 9 8 8 10 11 11 10 10 10 9 7 5 5 7 7 5 2 1 1 1 2 3 4 3 3 2 1 1 1 1 2
15 15 14 14 15 15 12 10 9 9 9 10 10 10 10 10 10 9 10 10 9 8 5 4 5 7 7 7 6 4 2 1 2 3 5 5 4 4 3 2 3 3 4
16 15 13 13 14 13 11 8 8 9 9 11 11 11 10 10 10 9 8 8 7 6 6 5 6 6 7 9 9 7 4 2 1 2 4 5 6 5 4 4 5 5 5
19 17 14 14 14 12 11 10 11 11 10 10 11 10 9 8 10 9 7 5 5 6 6 6 6 7 8 9 9 7 4 2 1 0 2 3 4 5 5 5 6 7 6
23 20 16 16 15 12 12 12 12 12 10 9 8 8 7 7 8 9 8 6 6 6 6 7 8 8 9 9 9 7 4 3 1 0 0 1 1 2 3 4 5 6 6
20 19 18 17 15 13 13 13 13 12 11 8 8 8 7 6 7 8 9 10 8 6 6 8 11 11 10 10 9 8 6 4 2 1 0 0 0 0 1 1 2 3 4
15 17 17 16 14 13 13 13 13 13 11 9 9 9 9 7 6 7 10 12 11 8 7 9 11 12 12 11 10 9 8 5 2 1 0 0 0 0 0 0 1 1 1
14 16 16 14 13 12 12 13 14 13 11 10 9 10 11 11 9 9 11 13 13 11 8 9 11 13 14 13 10 9 8 5 3 1 0 0 0 0 0 0 0 0 0
14 17 17 14 13 13 13 13 13 13 12 12 10 10 11 13 14 13 12 13 13 12 10 9 11 15 17 14 10 8 7 6 4 2 1 0 0 0 0 0 0 0 0
14 16 17 15 14 14 14 15 15 13 14 14 12 11 11 13 15 16 15 13 13 12 12 12 13 16 20 18 11 8 7 6 5 3 1 0 0 0 0 0 0 0 0
14 16 17 16 15 14 15 16 16 15 15 14 13 12 11 11 14 16 17 15 14 14 15 17 17 16 17 17 13 8 7 6 6 5 2 1 0 0 0 0 0 0 0
15 16 18 17 15 14 15 16 18 18 17 15 14 14 13 12 13 14 16 16 16 15 17 19 19 17 14 13 12 9 6 6 6 5 4 3 1 0 0 0 0 0 0
15 16 18 17 14 12 12 15 18 20 19 17 15 15 14 13 11 10 10 12 14 15 16 16 16 15 13 13 12 9 7 6 6 6 6 5 3 1 0 0 0 0 0
15 16 17 16 13 10 10 12 15 18 18 17 16 15 14 12 9 5 4 6 8 10 10 10 10 11 12 14 13 10 8 7 7 7 7 6 5 2 0 0 0 0 0
14 14 14 14 12 10 9 9 9 13 15 15 15 15 14 12 9 6 3 3 3 4 5 5 6 8 10 12 12 10 9 9 8 9 8 7 6 4 1 0 0 0 0
13 12 12 13 12 11 8 6 6 9 12 13 14 14 13 11 9 8 6 5 4 4 3 2 4 6 8 9 9 10 10 10 9 9 9 8 6 3 1 0 0 0 0
14 13 12 12 13 11 6 3 4 8 12 13 13 12 10 8 6 6 7 7 7 7 5 3 3 4 3 4 6 8 10 10 9 9 9 9 6 3 1 1 1 0 0
14 13 12 12 12 10 5 2 3 7 12 13 12 11 8 5 3 3 6 7 7 8 7 5 3 2 1 1 3 6 8 8 8 9 11 10 7 3 1 2 2 1 0
Wind_Speed
1 2 1 1 1 2 3 2 1 1 1 1 2 3 3 3 3 3 4 8 9 9 9 9 8 8 8 8 8 8 7 7 7 7 7 6 6 6 6 6 6 6 6
1 1 1 1 1 1 1 1 1 1 1 1 1 2 2 2 2 3 4 6 9 9 9 9 9 9 8 8 8 8 8 7 7 7 7 6 6 6 6 6 6 6 5
1 0 1 1 0 1 1 1 1 1 2 2 2 2 1 1 2 3 4 4 5 8 10 10 10 9 9 9 9 9 9 8 8 8 7 7 7 7 6 7 6 6 5
1 0 1 1 1 1 1 1 1 1 1 1 0 1 1 1 2 2 3 4 4 5 8 10 10 10 9 9 9 9 9 8 8 9 8 8 8 8 7 7 7 7 6
1 1 1 1 1 1 1 1 1 1 1 1 1 1 1 2 2 3 3 4 4 5 5 8 10 10 10 10 10 10 10 9 9 9 9 9 9 9 9 8 7 7 7
1 1 1 1 1 1 0 0 0 1 1 1 1 1 1 2 2 3 3 3 4 5 6 6 6 8 11 11 11 11 11 11 11 10 10 10 9 9 9 9 8 8 7
1 1 1 1 1 1 1 1 1 1 1 1 1 1 1 2 3 3 2 3 4 4 5 5 5 4 5 10 10 11 12 12 12 12 11 11 10 10 9 9 8 8 7
1 2 1 1 1 2 2 1 1 1 1 2 1 1 1 1 2 4 3 3 3 3 4 5 4 4 5 4 7 11 11 11 11 11 11 11 11 11 11 10 9 9 8
1 0 1 0 1 1 1 1 1 1 2 2 1 1 1 1 1 1 3 3 3 3 3 3 5 4 4 4 5 9 11 10 10 10 9 10 10 11 11 11 10 10 9
1 1 1 1 1 1 1 1 1 1 1 1 1 1 1 0 0 0 1 2 3 3 2 3 3 4 5 4 5 8 10 9 9 8 8 7 8 9 10 10 10 10 10
2 1 1 1 1 1 1 1 0 1 1 1 1 1 1 1 2 1 1 1 1 2 3 2 2 2 4 4 4 6 9 9 8 8 7 7 8 9 9 9 10 9 9
2 2 1 1 1 1 1 1 1 1 1 1 1 1 1 1 1 1 1 1 1 1 2 2 2 2 2 3 5 8 10 9 8 8 7 7 7 8 9 9 9 10 9
2 2 1 1 1 2 1 1 1 1 2 1 1 1 1 2 1 1 1 1 1 1 2 2 2 3 3 3 4 9 9 9 8 8 7 7 8 8 8 8 8 8 8
1 2 2 2 2 2 2 2 2 2 1 2 2 1 1 2 2 1 1 1 1 1 1 2 2 3 2 3 5 8 7 9 9 8 8 8 8 8 8 8 8 7 7
1 2 1 1 2 2 2 2 2 2 2 2 1 1 1 2 1 2 2 1 1 1 2 2 1 2 2 3 6 5 5 8 9 9 9 9 8 8 8 8 8 7 7
0 1 1 1 1 2 2 1 1 1 2 2 2 1 1 1 1 1 2 2 1 1 1 1 0 1 1 2 5 4 4 8 9 10 10 9 9 9 8 8 8 8 7
1 1 1 1 2 2 2 2 2 2 2 2 2 2 2 2 1 1 2 1 1 1 1 2 1 0 1 1 2 2 3 4 6 10 11 11 11 10 10 9 9 8 8
2 2 2 2 2 2 2 2 3 2 2 2 2 1 2 1 1 1 1 1 1 1 2 2 1 1 1 2 2 3 3 4 4 10 12 12 11 11 11 10 10 9 9
2 2 2 2 2 2 2 2 3 3 2 2 1 1 1 1 1 1 1 1 1 2 1 2 2 1 1 1 1 3 4 3 4 6 10 11 12 12 11 11 11 10 10
2 2 2 2 2 2 2 2 2 2 2 1 1 1 1 1 1 1 1 1 1 2 2 2 2 2 2 2 1 2 3 2 3 3 4 6 9 11 11 11 11 11 11
3 2 3 3 3 2 1 1 2 2 2 1 1 1 1 1 1 1 1 1 1 1 2 2 2 2 1 1 1 2 2 2 3 2 2 3 4 5 6 9 11 12 12
2 2 2 2 1 1 1 1 1 2 2 2 2 2 2 3 3 3 2 3 4 3 2 2 2 2 2 1 1 2 2 2 3 2 2 3 3 4 5 5 9 13 13
2 2 2 1 1 1 1 1 1 2 3 3 2 2 3 2 3 2 2 3 3 4 5 3 3 3 3 2 2 3 3 3 4 3 2 4 3 3 4 5 10 13 14
2 1 1 1 1 1 2 2 2 3 3 2 2 2 2 1 1 1 2 2 2 2 3 3 3 3 3 2 2 3 4 4 4 4 3 4 3 3 3 3 8 13 14
1 2 2 1 1 1 2 3 2 2 3 3 2 1 1 1 1 0 2 2 3 2 2 2 3 4 5 5 3 2 3 3 4 4 2 2 3 3 3 3 5 9 11
2 2 1 1 1 2 2 2 2 2 2 2 1 1 2 2 2 1 2 2 3 3 3 3 3 4 5 5 6 4 3 3 3 3 2 1 2 2 2 2 2 2 4
Wind_Direction
131 123 125 137 171 150 154 179 169 165 169 170 170 165 175 177 158 143 142 157 159 161 163 165 166 166 163 162 159 161 167 168 169 173 173 173 175 174 173 173 171 172 171
106 121 146 156 141 124 124 147 144 138 167 189 181 169 181 179 169 160 157 166 168 168 173 177 180 179 178 176 173 173 176 181 181 179 176 177 182 183 181 176 175 173 173
129 151 148 155 148 136 136 145 155 167 192 195 185 184 174 187 185 176 166 167 173 181 183 184 184 185 189 189 188 187 188 191 189 186 185 185 189 189 183 181 180 179 177
164 204 171 161 184 153 154 165 173 190 185 186 178 194 174 187 207 197 175 170 174 181 187 188 186 188 193 196 197 193 192 195 193 192 191 192 193 193 191 189 189 189 188
165 188 189 175 195 179 180 221 155 188 194 190 191 211 204 199 213 216 196 182 181 176 172 184 190 195 198 200 199 198 198 200 200 200 199 200 199 197 197 197 198 198 199
185 199 199 193 204 166 174 222 206 219 217 220 231 229 211 212 203 215 208 188 186 182 178 178 185 198 202 203 202 203 204 206 207 206 205 204 203 203 202 202 204 207 210
166 191 246 195 194 184 207 210 208 230 216 183 187 236 228 220 209 215 207 189 190 185 173 175 184 186 195 205 206 205 207 209 208 210 212 211 206 202 203 207 210 214 217
178 182 204 223 200 190 193 214 217 230 229 192 200 210 226 237 234 211 196 197 195 185 179 185 190 187 184 182 198 202 205 205 204 208 215 214 205 205 209 212 216 219 220
136 195 195 223 230 198 184 216 222 225 244 232 206 221 220 216 220 201 204 196 184 178 181 184 188 178 187 183 187 200 201 201 205 209 213 211 207 208 212 216 219 221 223
166 167 182 199 203 182 204 236 200 254 252 267 222 228 229 123 206 229 235 183 177 176 188 199 180 173 184 180 174 179 187 192 199 204 207 207 210 211 214 217 221 223 225
167 175 186 211 194 168 182 247 215 272 273 278 284 273 248 233 224 210 226 202 198 186 184 178 171 166 173 168 161 165 174 184 189 194 203 208 211 212 215 218 219 221 225
159 171 178 183 201 211 206 213 207 205 245 288 300 298 288 269 252 227 228 227 212 206 185 168 174 173 171 163 168 158 167 178 187 193 200 204 209 212 211 218 222 226 229
158 177 187 195 216 226 206 211 216 222 215 240 265 283 302 298 300 301 261 251 236 225 194 183 181 175 172 140 153 159 166 175 185 192 198 206 212 214 212 215 220 228 233
153 163 184 197 207 218 219 209 212 216 213 228 248 258 282 287 300 305 280 279 276 259 220 213 182 170 159 148 161 168 169 178 186 194 201 206 212 215 218 219 224 231 239
183 149 175 198 213 216 218 210 210 220 208 222 240 258 259 279 288 294 290 284 256 255 257 233 184 166 154 142 157 174 170 187 193 197 201 205 210 215 221 224 229 230 231
171 170 177 216 217 209 211 214 211 213 198 208 214 224 237 268 304 296 298 285 279 268 267 285 269 173 145 158 169 185 195 187 195 203 205 208 211 217 225 228 227 227 228
205 197 199 231 232 216 215 218 225 210 210 216 227 227 235 231 263 289 302 305 294 275 253 280 318 86 93 153 167 210 197 187 199 208 208 209 212 216 221 225 224 223 222
220 209 207 221 238 226 211 214 227 230 225 222 225 238 251 255 258 278 303 304 289 265 236 254 269 243 223 211 199 222 223 218 205 207 208 211 214 217 220 223 223 221 220
218 221 218 217 235 244 226 225 230 233 235 227 223 232 240 247 265 286 295 301 305 301 265 239 250 248 233 224 225 242 248 239 239 206 206 212 216 219 221 222 223 220 220
215 218 224 223 220 228 234 237 239 235 228 213 212 225 229 220 228 267 275 293 298 302 296 278 265 257 244 237 223 248 265 250 256 238 212 212 217 222 224 223 222 220 220
223 211 226 232 234 224 234 227 255 239 226 228 235 232 220 171 173 227 274 280 294 300 297 284 272 268 251 248 247 260 267 271 266 250 218 218 208 217 220 225 226 221 219
222 226 234 237 245 242 161 167 233 243 240 230 230 224 198 177 183 198 232 247 243 247 263 276 283 281 277 280 285 282 279 277 274 259 248 249 224 219 218 212 212 211 216
201 232 245 215 187 177 161 174 227 238 248 242 231 232 244 205 180 213 233 243 251 245 234 243 265 278 287 289 282 285 284 283 272 267 258 265 250 240 232 222 208 207 212
196 223 241 227 182 196 194 196 234 236 244 234 220 225 223 185 209 243 260 258 255 252 241 231 243 269 287 309 296 273 276 279 277 272 242 257 257 255 262 249 217 209 212
190 219 223 218 188 190 215 205 212 240 232 231 224 222 201 151 147 203 265 283 293 282 273 265 251 249 260 270 268 276 273 274 280 280 256 248 267 264 258 251 238 221 219
192 215 207 207 187 158 183 189 208 244 244 242 198 148 117 141 160 194 260 272 276 285 290 283 271 255 248 248 237 227 250 268 278 285 288 273 280 288 280 256 239 212 226